TimeCST,TemperatureF,Dew PointF,Humidity,Sea Level PressureIn,VisibilityMPH,Wind Direction,Wind SpeedMPH,Gust SpeedMPH,PrecipitationIn,Events,Conditions,WindDirDegrees,DateUTC
12:13 AM,26.6,21.2,80,30.07,10.0,Calm,Calm,-,N/A,,Clear,0,2013-11-03 05:13:00
12:33 AM,24.8,19.4,80,30.08,10.0,Calm,Calm,-,N/A,,Clear,0,2013-11-03 05:33:00
12:53 AM,24.8,19.4,80,30.08,10.0,Calm,Calm,-,N/A,,Clear,0,2013-11-03 05:53:00
1:13 AM,24.8,19.4,80,30.08,10.0,Calm,Calm,-,N/A,,Clear,0,2013-11-03 06:13:00
1:34 AM,24.8,19.4,80,30.09,10.0,Calm,Calm,-,N/A,,Clear,0,2013-11-03 06:34:00
1:53 AM,24.8,19.4,80,30.09,10.0,Calm,Calm,-,N/A,,Clear,0,2013-11-03 06:53:00
1:13 AM,24.8,19.4,80,30.10,10.0,Calm,Calm,-,N/A,,Clear,0,2013-11-03 07:13:00
1:33 AM,24.8,19.4,80,30.10,10.0,Calm,Calm,-,N/A,,Clear,0,2013-11-03 07:33:00
1:53 AM,23.0,17.6,80,30.10,10.0,Calm,Calm,-,N/A,,Clear,0,2013-11-03 07:53:00
2:13 AM,23.0,17.6,80,30.10,10.0,Calm,Calm,-,N/A,,Clear,0,2013-11-03 08:13:00
2:33 AM,23.0,17.6,80,30.11,10.0,Calm,Calm,-,N/A,,Clear,0,2013-11-03 08:33:00
2:54 AM,23.0,17.6,80,30.11,10.0,Calm,Calm,-,N/A,,Clear,0,2013-11-03 08:54:00
3:13 AM,23.0,17.6,80,30.11,10.0,Calm,Calm,-,N/A,,Clear,0,2013-11-03 09:13:00
3:33 AM,23.0,17.6,80,30.12,10.0,Calm,Calm,-,N/A,,Clear,0,2013-11-03 09:33:00
3:54 AM,23.0,17.6,80,30.11,10.0,Calm,Calm,-,N/A,,Clear,0,2013-11-03 09:54:00
4:13 AM,23.0,17.6,80,30.11,10.0,Calm,Calm,-,N/A,,Clear,0,2013-11-03 10:13:00
4:33 AM,21.2,17.6,86,30.11,10.0,NNE,3.5,-,N/A,,Clear,30,2013-11-03 10:33:00
4:54 AM,23.0,17.6,80,30.10,10.0,Calm,Calm,-,N/A,,Clear,0,2013-11-03 10:54:00
5:13 AM,24.8,19.4,80,30.11,10.0,NNE,3.5,-,N/A,,Clear,20,2013-11-03 11:13:00
5:33 AM,26.6,21.2,80,30.11,10.0,NNE,3.5,-,N/A,,Clear,20,2013-11-03 11:33:00
5:53 AM,26.6,21.2,80,30.10,10.0,NE,4.6,-,N/A,,Clear,40,2013-11-03 11:53:00
6:13 AM,26.6,21.2,80,30.11,10.0,Calm,Calm,-,N/A,,Clear,0,2013-11-03 12:13:00
6:33 AM,26.6,21.2,80,30.11,10.0,Calm,Calm,-,N/A,,Clear,0,2013-11-03 12:33:00
6:53 AM,28.4,23.0,80,30.11,10.0,NE,4.6,-,N/A,,Clear,40,2013-11-03 12:53:00
7:13 AM,30.2,24.8,80,30.11,10.0,NE,4.6,-,N/A,,Clear,40,2013-11-03 13:13:00
7:33 AM,30.2,24.8,80,30.11,10.0,NE,3.5,-,N/A,,Clear,50,2013-11-03 13:33:00
7:53 AM,30.2,24.8,80,30.12,10.0,Calm,Calm,-,N/A,,Clear,0,2013-11-03 13:53:00
8:13 AM,30.2,26.6,86,30.12,10.0,NNE,3.5,-,N/A,,Clear,30,2013-11-03 14:13:00
8:33 AM,32.0,26.6,80,30.12,10.0,Calm,Calm,-,N/A,,Clear,0,2013-11-03 14:33:00
8:53 AM,33.8,28.4,81,30.12,10.0,Calm,Calm,-,N/A,,Clear,0,2013-11-03 14:53:00
9:13 AM,35.6,30.2,81,30.12,10.0,Calm,Calm,-,N/A,,Clear,0,2013-11-03 15:13:00
9:33 AM,37.4,32.0,81,30.11,10.0,ENE,3.5,-,N/A,,Clear,70,2013-11-03 15:33:00
9:53 AM,41.0,33.8,76,30.11,10.0,SE,4.6,-,N/A,,Clear,130,2013-11-03 15:53:00
10:13 AM,41.0,30.2,65,30.11,10.0,SSE,9.2,-,N/A,,Clear,150,2013-11-03 16:13:00
10:33 AM,42.8,30.2,61,30.11,10.0,South,9.2,-,N/A,,Clear,170,2013-11-03 16:33:00
10:54 AM,42.8,32.0,66,30.11,10.0,SSE,9.2,-,N/A,,Clear,150,2013-11-03 16:54:00
11:13 AM,42.8,32.0,66,30.10,10.0,ESE,6.9,-,N/A,,Mostly Cloudy,120,2013-11-03 17:13:00
11:33 AM,42.8,30.2,61,30.10,10.0,ESE,6.9,-,N/A,,Overcast,120,2013-11-03 17:33:00
11:54 AM,42.8,30.2,61,30.09,10.0,East,6.9,-,N/A,,Overcast,80,2013-11-03 17:54:00
12:13 PM,42.8,32.0,66,30.08,10.0,East,6.9,-,N/A,,Overcast,80,2013-11-03 18:13:00
12:33 PM,42.8,32.0,66,30.07,10.0,East,6.9,-,N/A,,Overcast,100,2013-11-03 18:33:00
12:53 PM,44.6,30.2,57,30.06,10.0,ESE,8.1,-,N/A,,Scattered Clouds,120,2013-11-03 18:53:00
1:13 PM,44.6,30.2,57,30.05,10.0,ESE,8.1,-,N/A,,Mostly Cloudy,120,2013-11-03 19:13:00
1:33 PM,44.6,30.2,57,30.04,10.0,ESE,9.2,-,N/A,,Mostly Cloudy,120,2013-11-03 19:33:00
1:53 PM,44.6,30.2,57,30.04,10.0,East,9.2,-,N/A,,Overcast,100,2013-11-03 19:53:00
2:13 PM,44.6,32.0,61,30.02,10.0,East,9.2,-,N/A,,Overcast,100,2013-11-03 20:13:00
2:33 PM,44.6,33.8,66,30.01,10.0,East,10.4,-,N/A,,Mostly Cloudy,90,2013-11-03 20:33:00
2:53 PM,44.6,33.8,66,30.01,10.0,East,11.5,17.3,N/A,,Overcast,90,2013-11-03 20:53:00
3:13 PM,44.6,33.8,66,30.01,10.0,ESE,9.2,-,N/A,,Overcast,110,2013-11-03 21:13:00
3:33 PM,44.6,33.8,66,30.01,10.0,East,10.4,-,N/A,,Overcast,100,2013-11-03 21:33:00
3:53 PM,44.6,33.8,66,30.01,10.0,East,10.4,-,N/A,,Overcast,100,2013-11-03 21:53:00
4:13 PM,44.6,35.6,71,29.99,10.0,ESE,8.1,-,N/A,,Overcast,110,2013-11-03 22:13:00
4:33 PM,44.6,33.8,66,29.99,10.0,ESE,9.2,-,N/A,,Overcast,120,2013-11-03 22:33:00
4:53 PM,44.6,33.8,66,29.99,10.0,ESE,11.5,17.3,N/A,,Overcast,110,2013-11-03 22:53:00
5:13 PM,44.6,32.0,61,29.99,10.0,ESE,10.4,18.4,N/A,,Overcast,120,2013-11-03 23:13:00
5:33 PM,42.8,32.0,66,29.99,10.0,ESE,11.5,19.6,N/A,,Overcast,110,2013-11-03 23:33:00
5:53 PM,42.8,32.0,66,29.99,10.0,ESE,16.1,19.6,N/A,,Overcast,110,2013-11-03 23:53:00
6:13 PM,42.8,30.2,61,29.99,10.0,ESE,9.2,-,N/A,,Overcast,120,2013-11-04 00:13:00
6:33 PM,42.8,30.2,61,29.99,10.0,SE,12.7,18.4,N/A,,Mostly Cloudy,130,2013-11-04 00:33:00
6:53 PM,42.8,30.2,61,29.99,10.0,SE,9.2,21.9,N/A,,Scattered Clouds,130,2013-11-04 00:53:00
7:13 PM,42.8,30.2,61,29.99,10.0,ESE,9.2,-,N/A,,Clear,120,2013-11-04 01:13:00
7:33 PM,42.8,30.2,61,29.99,10.0,ESE,8.1,-,N/A,,Clear,120,2013-11-04 01:33:00
7:53 PM,41.0,30.2,65,29.99,10.0,ESE,8.1,-,N/A,,Clear,120,2013-11-04 01:53:00
8:14 PM,41.0,30.2,65,29.99,10.0,ESE,6.9,-,N/A,,Clear,120,2013-11-04 02:14:00
8:33 PM,41.0,30.2,65,29.99,10.0,ESE,6.9,-,N/A,,Clear,120,2013-11-04 02:33:00
8:53 PM,41.0,30.2,65,29.98,10.0,SE,8.1,-,N/A,,Clear,130,2013-11-04 02:53:00
9:13 PM,42.8,30.2,61,29.99,10.0,SE,9.2,-,N/A,,Scattered Clouds,130,2013-11-04 03:13:00
9:33 PM,41.0,30.2,65,29.99,10.0,SE,8.1,-,N/A,,Mostly Cloudy,130,2013-11-04 03:33:00
9:53 PM,41.0,30.2,65,29.99,10.0,SE,6.9,-,N/A,,Scattered Clouds,130,2013-11-04 03:53:00
10:13 PM,42.8,30.2,61,29.98,10.0,SE,6.9,-,N/A,,Scattered Clouds,130,2013-11-04 04:13:00
10:33 PM,42.8,30.2,61,29.98,10.0,ESE,5.8,-,N/A,,Clear,120,2013-11-04 04:33:00
10:53 PM,42.8,30.2,61,29.98,10.0,ESE,5.8,-,N/A,,Clear,120,2013-11-04 04:53:00